STARLINK-31856, 59960

Orbit data source: Space-Track

STARLINK-31856, 59960 is a payload satellite owned by SpaceX/Seattle (US) in LEO that was launched on Wed, 05 Jun 2024 UTC via an FALCON 9 launch vehicle from the Air Force Eastern Test Range (AFETR). Payload-class satellites include a variety of spacecraft equipped with specific instruments for various scientific and technological missions. These include communications satellites like Starlink; space stations such as the ISS; scientific satellites like the Hubble; Earth observation satellites from companies like Planet Labs, Umbra, and HawkEye 360; GPS; miniature CubeSats for education and research; and military/defense satellites.

Loading next visibility...
Identifier
59960, 2024-107R
Orbit
LEO
Country
Flag of USUS
Related business
Manufacturer
SpaceX/Seattle
Mission
Operational Commercial Communications
Bus & Motor
STARLINK V2M, Unknown motor
Mass
730 kg wet, ~700 kg dry
Launch date (UTC)
2024-06-05 (1 year ago)
Launch vehicle
FALCON 9
Launch site
Air Force Eastern Test Range (AFETR)
Object type
Payload
Rocket body
Debris
Shape & HBR
Box + 2 Pan, 17.7 m
Radar Cross Section
33.884 m², Large (>1 m²)

Expand to show TLE details & history
Last TLE update: 16 hours ago

TLE from 16 hours ago
0 STARLINK-31856
1 59960U 24107R   25301.33564900 -.00001019  00000-0 -22287-4 0  9992
2 59960  53.1602 320.2199 0001347  82.2353 277.8801 15.30178568 79533
Epoch: 2025-10-28T08:03Z
TLE epoch observation values (Epoch: 2025-10-28T08:03:20.073Z)
Latitude
-0°
Longitude
162.46165°
Altitude
476.052 km
Speed
7.629 km/s
True Right ascension
21h 20m 52s
True Declination
0° 00' 00"
Sunlit
Object was in daylight at epoch
Visualization orbit readout
Latitude
Unknown
Longitude
Unknown
Altitude
Unknown
Speed
Unknown
Apparent Right ascension
Unknown
Apparent Declination
Unknown
Sunlit
N/A
Visualization observer readout
Local Sidereal Time
19:54:48
Azimuth
Unknown
Elevation
Unknown
Doppler factor
Unknown
Orbital elements
Apogee altitude
476.459 km
Perigee altitude
474.612 km
Semi-major axis
6,853.672 km
Eccentricity
0.00013
Inclination
53.1602°
RAAN
320.2199°
Arg. of periapsis
82.2353°
True anomaly
277.86481°
Mean anomaly
277.8801°
Eccentric anomaly
277.87245°
Mean motion
3.82524 °/min
Orbital period
94.11 mins
BSTAR
-0.000022287
Loading maneuver chart data...
Computing Atmospheric mass density...
Loading historical data...
Loading historical data...
Loading historical data...
Loading historical data...
Loading historical data...
Loading historical data...
Loading historical data...

Documentation

Showing up to 5 results
|